Theta_e
306 306 306 305 306 305 304 305 306 305 305 305 306 306 304 302 303 303 307 307 303 308
307 307 306 306 305 306 305 308 306 305 304 304 305 305 303 301 302 301 302 304 306 301
307 308 307 307 306 305 305 306 306 304 304 303 304 304 302 301 301 301 302 304 304 303
307 308 308 307 306 306 305 305 305 304 304 303 303 302 302 301 302 301 300 304 301 301
306 307 306 307 306 306 305 305 305 305 303 303 302 301 301 302 302 303 305 305 302 301
306 305 306 307 307 306 306 306 305 304 302 302 302 301 302 302 301 302 302 303 302 302
305 305 305 307 307 307 306 306 304 303 303 303 302 302 302 302 301 300 301 301 302 304
305 306 307 307 308 308 306 306 305 303 303 302 303 303 302 303 301 300 299 299 302 305
307 307 307 308 308 307 306 305 305 303 302 301 303 304 304 306 302 300 300 299 299 301
308 307 307 308 307 306 306 305 304 304 302 301 301 303 301 303 302 302 300 299 298 300
307 308 308 306 306 305 305 305 305 305 304 302 303 303 301 302 302 302 302 301 300 298
307 306 307 307 304 304 305 305 308 305 305 304 306 303 301 301 301 301 302 304 305 304
307 307 307 307 306 303 308 307 310 308 306 307 306 304 301 301 300 299 300 301 304 305
307 306 307 306 305 304 306 307 306 307 306 306 306 306 301 300 300 299 299 299 301 303
Wind_Speed
1 1 0 1 2 2 2 2 4 5 5 6 6 5 5 3 4 5 5 8 6 3
3 3 2 3 2 2 3 3 4 4 6 6 6 6 6 4 5 5 5 6 5 3
4 3 2 3 4 4 4 5 5 5 5 5 6 6 6 5 5 6 5 5 8 7
3 3 2 3 3 3 3 5 6 5 5 5 6 6 5 6 6 6 5 9 6 7
2 3 2 3 3 3 4 4 4 5 5 5 5 5 6 6 6 5 6 7 7 8
3 3 3 2 2 3 4 4 4 4 5 5 5 5 6 5 6 5 5 5 6 6
3 3 4 3 2 2 2 3 3 3 3 4 5 5 5 5 5 6 5 5 5 5
4 4 4 2 3 3 1 1 1 2 2 3 4 3 5 3 4 5 5 6 5 5
5 4 3 3 4 3 2 2 1 1 2 4 3 6 9 6 4 3 5 6 6 6
4 4 4 3 4 4 3 3 3 3 3 5 6 7 7 9 4 3 4 4 4 5
4 5 4 3 5 4 3 4 4 5 5 5 6 9 7 7 5 4 4 4 4 3
5 5 5 5 6 5 5 4 4 5 6 6 6 8 8 4 4 5 6 4 5 5
5 5 6 5 7 4 3 5 4 6 6 8 8 7 9 5 2 4 4 6 6 8
5 6 5 5 3 4 5 6 5 6 6 7 7 8 9 8 3 4 4 4 5 4
Wind_Direction
303 288 324 2 8 6 353 341 345 351 359 353 356 2 8 3 355 354 0 359 339 327
337 360 1 19 20 359 3 337 1 18 7 2 359 4 6 17 10 354 355 353 337 335
332 351 15 27 25 22 11 14 8 18 21 11 10 4 8 5 0 10 1 5 1 358
345 2 38 32 17 18 7 14 16 24 24 17 10 1 9 358 9 13 359 25 356 355
315 356 27 17 3 6 14 17 20 26 28 20 11 8 11 9 359 4 7 18 12 8
296 330 315 324 339 11 16 25 31 37 24 15 7 14 6 12 9 8 5 4 1 351
272 291 292 279 324 345 6 32 42 44 14 5 351 7 6 6 6 5 359 354 355 349
244 265 287 314 309 320 10 51 64 63 352 338 341 344 337 354 354 350 349 348 344 338
227 242 275 309 311 324 318 340 328 307 290 309 307 320 331 326 296 340 334 333 326 324
227 237 260 285 311 314 302 286 288 278 268 278 288 296 319 331 317 287 291 317 333 333
238 245 266 300 286 287 275 262 260 265 265 264 267 274 298 324 339 332 296 254 284 299
238 263 280 271 284 269 256 258 247 247 260 260 273 260 269 303 330 327 323 291 255 268
237 255 274 263 274 268 256 264 275 263 253 259 268 266 263 257 258 291 303 304 294 277
237 253 253 282 268 295 306 292 277 271 273 273 261 273 254 251 237 250 283 285 296 281